This is the latest recevied weather packets stored in our database for station/object W4ZHA. If no packets are shown the sender has not sent any weather packets the latest 10 day(s).
| Time | Temp. | Humidity | Pressure | Rain* | Wind** | Luminosity | Snow |
|---|---|---|---|---|---|---|---|
| 1777447199 | 17.78° C | 97% | 1015.1 hPa | 3.56 mm | - | 0 W/m² | - |
| 1777446898 | 17.78° C | 97% | 1015.5 hPa | 3.56 mm | - | 0 W/m² | - |
| 1777446595 | 17.78° C | 97% | 1015.5 hPa | 1.78 mm | - | 0 W/m² | - |
| 1777446291 | 17.78° C | 97% | 1015.1 hPa | 1.78 mm | - | 0 W/m² | - |
| 1777445988 | 17.78° C | 97% | 1015.1 hPa | 3.56 mm | - | 0 W/m² | - |
| 1777445684 | 17.78° C | 97% | 1015.5 hPa | 1.78 mm | - | 0 W/m² | - |
| 1777445379 | 17.78° C | 97% | 1015.5 hPa | 1.78 mm | - | 0 W/m² | - |
| 1777445076 | 17.78° C | 97% | 1015.5 hPa | 1.78 mm | - | 0 W/m² | - |
| 1777444772 | 17.78° C | 95% | 1015.5 hPa | 0 mm | - | 0 W/m² | - |
| 1777444468 | 17.78° C | 94% | 1015.1 hPa | 1.78 mm | - | 0 W/m² | - |
| 1777444166 | 17.78° C | 91% | 1015.1 hPa | 1.78 mm | - | 0 W/m² | - |
| 1777443862 | 17.78° C | 88% | 1015.1 hPa | 0 mm | - | 0 W/m² | - |
| 1777443558 | 17.78° C | 87% | 1014.8 hPa | 1.78 mm | - | 0 W/m² | - |
| 1777443253 | 17.78° C | 83% | 1015.1 hPa | 0 mm | - | 0 W/m² | - |
| 1777442951 | 18.33° C | 81% | 1015.5 hPa | 1.78 mm | - | 0 W/m² | - |
| 1777442648 | 18.33° C | 80% | 1015.8 hPa | 1.78 mm | - | 0 W/m² | - |
| 1777442343 | 18.33° C | 79% | 1015.8 hPa | 1.78 mm | - | 0 W/m² | - |
| 1777442041 | 18.33° C | 78% | 1015.8 hPa | 1.78 mm | - | 0 W/m² | - |
| 1777441735 | 18.33° C | 77% | 1016.1 hPa | 1.78 mm | - | 0 W/m² | - |
| 1777441430 | 18.33° C | 77% | 1015.8 hPa | 1.78 mm | - | 0 W/m² | - |
| 1777441125 | 18.33° C | 77% | 1015.8 hPa | 0 mm | - | 0 W/m² | - |
| 1777440822 | 18.33° C | 76% | 1015.5 hPa | 0 mm | - | 0 W/m² | - |
| 1777440517 | 18.33° C | 77% | 1015.5 hPa | 0 mm | - | 0 W/m² | - |
| 1777440213 | 18.33° C | 77% | 1015.5 hPa | 0 mm | - | 0 W/m² | - |
| 1777439910 | 18.33° C | 78% | 1015.5 hPa | 0 mm | - | 0 W/m² | - |
* Rain latest hour (hover to see other rain measurements)
** Current wind speed in m/s (hover to see current wind gust speed)